Location: Newark
(51.0500°N, 12.4500°E)
Time: 14:34:59
(UTC+00:00)

Tiros 1 - Pass Details

Date: 21 February 2020
Orbit: 630 x 664 km, 48.4° (Epoch: 06 April)

Event Time Altitude Azimuth Distance (km) Brightness Sun altitude
Rises 00:35:24 0° 186° (S) 2,919 - -47.2°
Reaches altitude 10° 00:39:53 10° 146° (SE) 2,010 - -46.9°
Maximum altitude 00:40:39 10° 136° (SE) 1,984 - -46.8°
Drops below altitude 10° 00:41:26 10° 126° (SE) 2,010 - -46.8°
Sets 00:45:54 0° 86° (E) 2,919 - -46.4°
